GFSGL_sfc_thetae_156.txt.gz
Theta_e
320 321 320 321 322 322 322 321 320 319 319 318 319 318 318 319 319 319 319 319 317 317 316 315 315 316 314 313 312 310 309 309 307 293 292 291 291 290 289 289 288 289 290
320 320 320 321 321 322 322 323 322 321 318 319 319 318 318 319 320 319 318 317 317 316 316 314 314 312 311 312 310 309 308 307 307 297 288 287 289 290 289 287 286 287 287
318 319 319 320 321 322 322 323 323 321 318 318 317 318 319 319 318 318 318 317 316 316 316 313 312 310 307 309 308 307 307 301 304 292 287 287 285 286 285 285 285 285 285
315 316 316 317 318 320 321 320 319 319 319 317 318 318 315 315 312 311 309 310 310 309 309 309 309 307 307 304 302 302 299 298 293 290 287 285 284 284 285 284 282 283 284
311 311 311 306 306 308 309 309 306 307 308 308 306 306 305 305 302 304 304 305 304 303 300 298 301 299 296 300 300 297 296 292 287 287 287 285 284 282 283 284 285 283 282
304 303 300 300 301 301 300 297 296 296 298 299 299 300 300 297 296 297 299 299 297 295 296 296 294 291 292 295 297 297 298 293 290 289 287 286 286 285 285 283 284 280 278
296 295 294 293 293 292 292 292 292 293 294 294 294 294 294 295 296 296 294 295 295 296 294 292 292 291 289 291 294 295 294 296 294 293 288 289 288 287 286 284 284 282 280
291 290 290 292 291 291 291 291 290 291 291 291 291 293 294 294 296 296 292 292 293 292 291 291 290 290 290 289 288 287 286 288 290 288 288 288 288 287 287 286 285 282 279
289 290 290 291 290 289 289 290 290 290 290 290 290 289 291 290 294 294 290 289 289 289 289 289 289 288 290 291 287 286 285 285 289 289 288 289 289 289 286 283 280 279 277
287 289 290 289 290 290 288 288 286 286 287 287 287 287 286 287 292 293 290 286 286 285 287 287 287 286 289 291 286 286 286 285 285 285 285 287 288 287 287 285 283 281 279
286 287 288 289 289 288 287 286 286 287 287 286 286 285 286 287 289 292 292 287 286 285 285 285 285 288 289 290 291 286 286 285 286 285 284 284 283 284 284 284 283 282 279
286 287 287 287 286 287 287 286 286 287 286 286 286 285 284 285 288 290 291 291 290 286 285 284 284 288 288 289 288 290 289 286 284 283 282 281 281 282 282 282 280 279 276
286 285 286 286 286 286 286 286 286 286 286 284 285 284 284 284 285 288 289 289 290 286 285 286 288 288 288 287 288 290 285 283 282 281 281 281 281 280 279 277 277 276 275
285 284 285 285 285 285 285 286 286 285 285 285 285 284 284 284 285 285 285 285 285 286 287 285 286 286 286 286 284 285 284 282 282 281 281 279 278 277 276 275 271 271 269
282 282 282 283 283 283 283 284 284 285 286 284 283 283 283 283 284 287 287 285 285 286 284 284 283 282 282 282 282 283 283 282 281 281 279 278 276 273 273 274 274 272 271
279 279 279 280 280 281 283 282 286 286 286 287 286 284 283 286 287 287 288 288 289 289 284 282 281 281 279 280 280 277 280 283 282 281 280 279 277 276 276 274 275 273 273
277 276 276 277 277 277 279 280 279 282 284 284 284 284 285 285 286 286 287 287 288 286 284 283 282 282 280 280 280 279 280 278 278 277 278 275 274 274 273 274 272 273 272
275 276 277 277 276 275 275 273 273 274 272 269 276 277 281 282 282 282 283 280 274 277 279 279 279 280 281 281 279 280 280 280 278 277 275 275 275 276 274 272 273 272 271
275 275 275 274 273 273 272 271 271 270 267 263 265 271 269 277 277 277 276 272 274 271 272 272 272 272 272 273 274 276 278 279 279 278 269 271 274 274 275 274 274 273 272
271 271 271 270 270 269 269 270 268 266 264 262 262 262 262 264 262 261 263 263 264 263 263 263 263 264 265 266 266 265 267 270 273 275 276 272 271 272 274 274 274 273 273
268 267 268 267 266 265 265 265 264 262 261 258 257 262 270 259 256 256 258 259 259 260 261 260 260 260 263 263 263 264 265 266 267 268 269 269 270 272 274 274 274 274 273
266 265 265 264 264 263 261 261 260 259 257 256 254 257 266 256 256 256 255 257 257 258 257 256 256 256 259 258 258 257 257 259 261 262 264 265 266 268 270 272 272 272 272
265 264 263 263 263 261 259 259 257 257 256 254 255 256 256 256 255 253 253 255 257 257 255 252 251 251 250 250 250 251 252 255 257 258 261 262 263 265 266 267 269 270 270
263 263 262 262 261 260 259 257 256 257 255 255 255 256 255 254 252 252 251 250 250 250 248 248 249 249 248 250 251 250 249 252 254 258 256 259 261 262 263 264 265 266 268
261 261 260 260 259 258 257 256 256 253 254 255 255 255 254 252 251 249 248 248 247 248 249 249 247 248 249 250 251 251 252 257 256 256 254 256 259 259 261 263 263 264 265
260 259 258 257 257 256 254 255 254 254 253 251 249 248 248 248 248 248 249 249 249 249 250 249 250 251 252 251 252 254 259 262 260 261 261 259 259 261 260 261 261 262 262

GFSGL_sfc_thetae_159.txt.gz
Theta_e
320 321 322 323 323 324 323 323 322 322 321 320 321 320 320 319 319 319 319 319 317 318 318 316 316 316 316 316 315 313 312 311 308 305 298 296 295 294 292 293 291 291 294
319 320 320 322 322 322 322 322 322 321 320 320 320 320 320 319 319 317 317 317 317 317 317 316 316 316 315 315 313 311 311 311 309 306 294 290 292 293 293 291 289 289 290
319 319 319 320 320 321 321 322 320 321 319 319 319 319 319 318 318 318 318 318 318 318 317 316 315 313 311 312 312 310 309 306 307 298 290 288 287 289 287 288 288 287 287
318 318 318 319 319 320 321 321 321 321 319 318 318 318 318 318 317 317 316 317 316 316 315 314 313 311 310 307 304 304 302 300 297 291 288 286 286 285 287 286 285 285 285
316 317 317 319 319 320 319 318 318 317 317 316 315 315 316 314 311 310 309 311 309 307 302 300 303 300 297 301 301 300 298 295 290 290 287 285 285 284 285 286 287 286 285
314 315 315 312 312 314 311 309 307 306 307 306 305 305 303 297 297 299 302 301 299 298 298 298 295 291 293 294 296 298 300 296 289 289 287 287 288 287 286 286 285 281 280
309 304 304 304 303 302 300 299 297 297 297 296 297 297 295 295 296 296 295 298 297 298 296 294 293 292 290 292 293 294 294 296 296 292 288 290 288 288 287 285 286 285 284
295 295 294 296 294 293 294 294 292 293 294 293 293 295 294 294 296 295 292 295 295 294 293 291 291 290 290 290 289 287 287 289 291 290 290 290 290 288 288 287 287 285 281
291 291 291 293 292 292 291 291 291 292 291 290 291 291 291 291 294 293 291 290 290 289 289 289 290 289 291 292 287 286 286 286 290 291 290 290 291 291 288 285 283 282 280
289 289 290 291 291 291 290 289 287 290 288 289 287 288 287 289 294 293 291 289 287 287 287 287 287 288 290 291 287 286 286 286 285 285 285 287 288 288 288 285 284 283 281
287 288 289 290 289 290 288 289 288 288 288 287 286 286 287 288 291 293 292 288 288 287 287 286 286 289 289 290 290 286 286 286 287 285 285 285 284 284 284 284 284 284 283
288 288 288 288 288 288 288 287 287 288 287 286 285 285 285 286 288 291 292 290 290 287 286 285 286 289 289 290 288 290 290 286 285 285 284 284 283 283 283 283 282 282 281
287 286 286 286 287 287 287 287 287 287 287 286 285 284 284 285 286 289 290 290 290 286 286 287 288 288 288 287 288 290 285 285 285 284 284 283 283 283 282 280 279 279 279
286 286 286 286 286 286 287 287 287 286 286 285 285 284 284 284 285 286 286 286 286 286 287 286 287 287 287 286 285 286 285 285 284 284 283 283 282 281 280 280 279 278 277
285 284 285 285 285 284 285 285 285 285 287 285 285 285 284 283 285 287 287 286 286 286 285 285 285 284 284 284 284 283 284 284 283 283 282 282 281 279 279 278 277 276 275
282 283 283 284 284 283 283 283 287 287 287 286 286 285 285 287 287 288 289 289 289 287 285 284 283 283 280 282 282 281 282 283 284 283 283 282 280 279 278 277 277 275 275
280 280 280 281 282 282 282 281 280 283 285 285 286 286 286 285 286 287 288 287 287 286 283 283 282 282 282 281 281 281 280 282 282 282 281 280 279 278 277 277 276 275 274
279 279 280 279 279 279 280 280 278 276 274 273 279 281 283 282 282 284 284 280 276 277 276 275 274 274 274 274 275 276 278 279 279 280 280 278 277 278 277 276 275 275 274
277 277 276 276 276 276 275 274 273 272 270 269 269 271 272 278 277 277 277 272 269 268 268 268 268 268 269 269 269 270 271 272 273 274 275 274 274 275 276 276 276 274 274
274 275 275 274 273 273 272 271 269 268 267 267 266 265 265 266 265 264 263 264 264 263 263 263 264 265 266 265 266 266 267 267 267 268 268 269 270 270 271 272 274 274 274
271 271 271 271 270 270 269 268 267 266 265 265 264 270 268 263 262 261 260 260 261 261 261 262 262 264 262 261 261 262 261 262 262 263 263 264 265 265 267 269 270 272 273
269 269 268 267 267 266 266 266 265 264 263 263 262 265 266 260 260 259 259 259 259 259 259 260 259 259 258 258 258 258 258 258 258 259 260 260 261 263 264 265 266 267 268
267 266 266 265 264 264 263 263 263 262 261 260 260 260 260 259 259 259 259 258 257 256 256 257 256 256 255 254 255 256 256 257 257 257 258 259 259 261 262 263 263 264 265
266 265 264 264 263 263 262 261 261 261 260 259 259 259 258 257 257 257 256 256 256 254 252 251 253 253 252 253 254 253 253 253 254 256 257 257 258 259 260 260 262 263 263
264 263 263 262 262 261 260 260 260 259 259 259 258 258 256 256 255 255 254 253 252 251 252 250 251 251 251 251 252 252 252 256 256 255 256 256 258 258 259 260 261 261 261
261 261 260 260 260 259 259 259 259 258 258 257 256 255 254 254 254 253 253 250 251 252 252 251 251 251 251 252 252 254 258 261 260 259 260 260 259 259 258 258 259 259 260

GFSGL_sfc_thetae_162.txt.gz
Theta_e
315 319 323 325 327 328 328 328 329 329 328 327 326 323 321 320 320 320 320 321 319 319 319 319 319 320 319 319 318 316 315 315 310 310 305 302 299 300 296 296 296 296 296
312 316 321 324 326 326 326 326 327 325 326 325 324 323 321 320 319 318 318 319 318 317 318 317 317 317 317 317 316 315 314 315 311 307 301 295 297 296 295 292 294 293 294
309 314 319 322 324 324 324 324 324 323 323 322 322 321 320 320 319 319 318 318 318 318 317 317 317 317 314 315 315 314 313 310 310 305 299 291 291 291 289 290 290 289 290
308 313 317 321 322 322 322 323 322 322 321 320 321 321 320 320 319 318 317 317 317 317 317 318 317 315 314 312 310 310 306 304 299 293 289 289 287 286 287 287 286 287 287
309 313 317 320 320 320 320 320 320 319 319 319 319 320 319 317 315 315 315 316 315 315 313 308 310 305 299 304 304 304 301 296 291 290 288 287 286 285 285 288 288 287 285
310 313 317 318 317 317 318 317 317 316 317 316 315 316 314 310 303 304 311 313 308 305 301 301 297 292 294 295 296 297 300 295 289 290 288 289 290 288 286 286 286 283 284
309 312 315 315 313 313 312 310 309 312 313 311 311 309 305 300 299 300 299 304 301 301 299 296 294 293 292 294 294 294 294 296 297 294 289 290 288 289 287 285 286 286 286
304 305 300 303 301 299 301 303 298 300 303 301 298 299 297 295 296 296 295 299 298 296 295 294 294 293 293 291 291 288 288 290 291 290 291 291 291 290 288 287 287 286 283
297 294 294 295 294 294 296 296 294 294 293 293 293 293 293 292 294 294 294 293 291 290 291 293 293 291 291 292 288 287 286 286 291 292 291 292 292 292 289 287 285 285 283
291 290 291 291 291 291 291 291 289 292 289 290 288 290 288 290 293 294 293 291 289 288 287 287 287 288 291 292 288 287 286 286 286 286 286 288 288 289 289 286 285 285 284
287 288 288 289 289 289 289 290 289 288 288 288 287 287 288 290 291 293 293 290 289 287 287 286 287 290 291 291 290 287 287 287 287 286 286 286 286 287 287 286 286 285 284
287 288 287 287 288 288 288 289 288 288 287 286 286 286 287 288 290 292 292 291 291 288 286 287 288 289 290 290 289 290 289 288 286 286 286 286 285 285 286 286 285 285 285
287 286 286 287 287 287 288 288 288 288 287 286 286 285 285 286 289 291 291 291 289 287 287 288 289 289 289 289 290 290 285 286 286 286 286 285 285 285 284 284 283 282 282
287 286 286 286 286 287 288 288 288 288 287 286 285 284 284 285 286 288 288 288 287 287 288 287 287 287 287 287 287 287 287 287 286 285 285 285 284 284 283 283 282 282 280
286 285 285 286 286 285 286 287 286 287 289 287 286 286 285 285 286 288 287 286 286 286 286 286 285 286 285 285 285 284 285 285 284 284 283 283 282 282 283 282 281 281 279
285 285 285 285 285 285 284 284 287 287 288 288 288 286 286 288 289 289 289 288 288 288 285 285 284 284 284 284 284 284 284 284 284 283 282 282 281 281 281 281 280 279 278
285 284 284 284 284 283 283 282 281 285 287 287 287 287 287 287 288 289 289 289 288 287 284 284 284 283 282 282 282 282 281 283 283 283 282 282 281 280 279 279 279 278 277
283 283 284 283 283 283 282 280 279 279 278 280 283 283 285 287 286 286 285 283 280 280 280 279 278 278 277 277 277 277 278 278 279 280 280 279 278 278 277 277 278 277 276
281 280 280 280 280 280 279 278 277 276 274 273 274 275 279 280 280 280 279 277 275 274 273 273 273 273 273 273 273 273 273 273 273 274 273 273 273 274 274 275 275 275 275
277 278 278 278 277 276 275 274 273 273 272 272 272 270 270 272 270 269 270 271 270 270 270 270 270 270 269 269 269 269 270 269 269 269 269 269 269 269 270 270 271 271 272
275 275 276 276 275 274 273 272 271 270 269 269 270 271 271 269 267 267 267 267 268 267 267 268 268 267 266 265 266 266 266 266 265 265 266 266 266 266 267 268 268 269 269
273 272 272 271 271 270 269 269 269 268 268 267 268 269 268 266 265 265 264 264 264 264 264 265 264 265 264 264 264 264 263 263 264 264 264 263 264 265 265 266 266 266 267
270 269 268 267 267 267 267 267 266 266 265 265 265 264 264 264 263 263 263 262 262 262 262 263 263 262 261 261 261 262 262 263 263 262 262 263 263 264 264 264 264 264 264
268 268 267 266 266 266 265 264 264 264 264 264 264 263 263 262 262 262 262 261 261 261 260 260 260 260 260 260 260 260 260 259 260 260 260 261 262 262 263 263 263 263 263
267 266 266 265 265 264 264 264 263 263 263 263 262 262 261 261 261 261 261 260 259 259 259 258 258 259 258 257 257 258 258 258 258 260 261 260 261 261 261 262 262 262 262
264 264 264 264 263 263 263 263 262 262 262 261 261 261 261 260 261 260 260 259 259 259 258 259 258 257 257 258 258 258 258 260 260 259 262 262 262 262 262 262 261 261 262

GFSGL_sfc_thetae_165.txt.gz
Theta_e
311 312 313 314 317 322 326 327 328 328 329 328 327 325 324 324 325 324 323 323 321 321 321 320 320 321 320 320 319 319 318 317 312 314 312 310 305 304 300 300 300 299 299
308 308 309 310 313 317 322 325 327 327 328 328 327 325 322 322 322 322 321 321 320 319 319 318 318 319 319 319 318 316 316 316 313 309 305 301 300 297 298 295 295 295 295
307 307 307 307 309 312 318 323 325 326 326 326 326 324 322 321 320 320 320 320 319 319 318 317 317 317 316 317 316 315 315 313 313 309 302 293 291 290 290 290 291 291 292
306 307 306 306 308 310 316 321 323 324 324 324 324 323 322 320 319 319 318 318 318 318 317 317 317 316 315 314 314 314 312 310 306 296 290 290 289 286 287 287 286 287 288
307 306 305 307 309 311 315 320 322 321 322 322 321 321 321 319 317 317 316 317 316 315 315 314 315 310 302 310 312 311 306 302 292 292 288 287 287 285 286 288 287 286 286
307 305 305 306 309 312 316 318 319 319 319 319 318 318 317 315 307 305 313 315 314 312 311 309 305 295 297 299 299 300 304 299 291 291 288 289 288 288 287 286 286 285 286
304 304 303 306 309 312 315 313 311 315 316 315 315 315 315 314 302 302 301 313 311 311 307 301 295 295 294 295 294 295 295 297 297 294 289 290 288 289 287 285 285 285 286
301 301 302 303 306 309 306 307 308 310 311 310 312 313 313 306 301 301 298 308 305 302 300 297 295 292 293 292 291 289 290 290 291 291 292 292 291 290 288 288 287 286 284
297 297 297 298 298 300 300 304 302 298 298 304 302 301 301 296 297 297 299 295 292 291 292 295 295 292 291 293 289 288 287 286 291 293 293 293 293 292 289 287 285 285 284
295 294 294 294 294 298 298 294 288 293 291 291 290 292 293 294 296 296 297 294 292 289 288 287 288 290 291 293 289 288 287 285 286 286 286 288 289 289 289 286 286 285 285
290 288 288 289 289 290 288 288 288 289 289 289 289 290 291 293 295 296 296 293 291 288 288 287 287 291 292 292 291 288 287 287 288 286 285 286 286 286 286 286 285 286 285
287 287 287 287 286 286 287 288 288 288 288 287 288 288 288 289 292 294 294 292 292 288 287 287 288 291 291 291 289 290 290 288 286 285 286 285 285 285 285 285 284 284 284
286 286 286 286 286 286 287 289 289 289 288 287 287 287 286 287 289 291 292 291 290 287 288 289 290 290 291 290 290 289 285 285 285 285 285 284 284 284 283 283 282 279 279
286 286 286 286 286 286 287 287 287 288 287 287 286 285 286 286 287 288 287 287 287 287 288 287 288 287 288 287 286 286 286 286 285 284 283 283 283 283 282 282 281 281 279
285 284 285 285 285 285 285 286 287 287 288 286 286 286 286 285 286 288 287 286 286 286 286 285 285 285 284 284 283 284 284 284 283 284 283 283 282 281 281 281 280 280 278
284 284 285 285 285 284 285 284 288 288 288 289 289 287 286 288 289 289 289 289 288 288 285 284 284 284 283 283 282 282 283 283 283 282 282 281 281 280 280 280 280 278 277
285 284 284 284 284 284 284 284 282 285 288 288 288 289 289 288 289 289 289 289 289 288 285 284 283 283 282 282 282 282 281 281 281 281 280 280 280 280 279 278 278 278 277
284 284 284 284 284 283 282 283 283 281 279 281 286 287 288 289 289 289 287 285 282 283 282 280 279 280 279 279 278 278 278 278 278 278 277 277 276 276 276 276 276 276 275
282 282 283 283 282 281 280 278 278 276 275 275 276 275 280 283 282 282 282 278 276 275 275 275 275 275 274 274 273 273 273 271 272 273 272 271 270 269 269 269 270 271 271
279 279 279 279 278 277 277 276 276 275 274 273 272 271 272 275 272 271 272 273 272 272 272 271 271 271 270 270 269 270 269 268 267 267 267 267 266 265 265 264 265 264 265
277 277 277 276 275 275 274 273 273 272 271 270 270 273 274 270 269 269 269 269 269 269 269 269 268 267 267 267 267 266 265 265 263 264 263 262 262 262 262 263 263 262 262
274 274 274 273 273 272 271 271 270 270 270 269 268 271 271 268 267 266 266 266 265 265 266 266 266 265 265 264 264 264 263 262 262 261 261 260 260 261 261 261 260 260 260
272 270 270 269 270 270 269 268 268 267 266 266 266 266 266 266 265 265 264 264 264 263 263 264 264 262 262 261 261 261 260 259 259 258 258 259 258 259 259 259 258 257 257
270 270 269 268 268 267 267 266 266 266 265 265 265 265 264 264 264 264 263 263 263 262 262 261 262 261 259 259 259 258 257 257 256 256 256 256 256 258 257 257 257 256 257
269 268 268 267 266 266 265 265 265 265 265 264 264 263 263 263 263 263 262 262 261 262 261 260 260 259 257 256 256 256 257 259 255 257 255 255 255 254 254 255 254 255 255
266 266 266 266 266 266 265 265 264 264 263 263 263 263 263 263 263 262 262 261 261 261 260 260 260 258 258 257 256 257 259 261 257 257 255 256 256 255 255 255 254 254 254

GFSGL_sfc_thetae_168.txt.gz
Theta_e
304 305 305 306 308 309 311 314 319 323 325 325 326 326 324 322 322 321 320 320 320 320 320 319 319 320 320 320 319 318 315 314 311 313 311 308 306 304 301 301 300 300 301
305 305 305 304 304 305 306 309 312 317 322 324 325 325 325 324 323 321 320 320 320 320 320 319 319 320 319 320 319 317 317 317 315 311 309 304 304 300 299 298 296 296 297
304 304 303 302 302 303 304 306 308 312 317 321 323 324 324 324 323 323 322 321 321 321 320 319 319 319 317 318 318 317 317 316 315 312 304 298 294 292 291 290 292 292 293
304 304 303 302 303 304 304 305 306 308 312 317 321 323 323 325 323 322 321 321 321 320 320 320 319 318 317 317 316 315 315 313 311 310 292 292 290 287 287 288 288 286 287
305 304 303 303 303 303 304 305 306 307 310 315 319 321 322 323 321 320 319 319 319 318 318 318 319 314 305 312 315 314 313 309 296 298 289 287 287 286 288 287 287 286 286
304 304 304 302 301 301 302 303 305 307 310 314 317 319 319 320 310 306 314 317 316 315 315 315 314 298 300 301 302 304 310 308 297 298 291 289 288 288 287 287 286 286 288
300 301 301 300 299 299 300 302 303 307 311 313 315 317 318 319 304 303 302 316 315 315 314 311 306 306 301 307 300 300 299 300 302 301 290 292 289 290 288 286 286 286 286
296 297 296 295 295 296 296 297 300 305 308 310 313 315 316 316 303 302 300 314 314 313 312 308 307 300 301 298 295 292 292 292 293 293 294 294 292 290 289 289 287 286 284
292 293 292 290 292 293 293 295 297 300 304 306 310 311 311 314 301 301 302 311 309 308 306 307 306 300 295 297 294 290 288 288 293 293 294 294 293 292 290 288 285 285 284
290 291 291 291 291 291 293 294 296 296 299 300 300 305 304 310 298 300 303 301 293 291 291 293 291 296 296 296 293 290 287 285 287 287 288 289 289 290 289 287 286 285 284
289 289 289 290 289 289 290 291 291 292 288 287 288 287 289 297 299 298 301 298 294 291 291 290 291 294 295 293 292 290 288 287 288 286 285 285 285 285 285 285 285 286 284
288 288 288 288 287 287 287 288 287 286 286 286 286 286 287 289 292 297 296 296 295 291 289 289 290 292 292 292 290 291 290 288 286 285 285 284 284 284 284 284 284 283 283
286 287 287 287 286 286 286 286 286 286 286 286 286 286 286 288 289 291 292 291 291 288 288 290 291 291 291 290 290 289 286 286 286 285 284 283 283 283 282 281 280 279 279
285 286 286 285 286 286 286 286 286 286 286 286 285 285 285 287 287 287 287 287 288 288 288 287 288 288 288 287 286 286 286 286 285 284 282 281 282 282 281 281 281 280 277
285 285 285 284 285 285 285 286 285 286 286 285 285 286 285 285 285 288 287 286 286 286 286 286 285 284 283 283 283 284 284 284 283 283 282 281 281 281 280 280 280 279 277
284 284 283 283 283 283 283 284 288 288 289 289 289 287 286 288 289 289 289 288 288 288 285 284 283 282 282 282 282 282 282 282 282 282 281 281 280 279 279 279 279 277 276
284 284 282 282 282 282 282 283 282 286 289 289 289 289 289 289 289 289 289 289 289 288 284 283 282 282 282 282 282 281 280 280 280 280 280 279 279 278 278 277 277 276 274
284 284 283 282 282 282 282 282 282 282 281 283 287 288 289 289 289 289 288 285 281 282 282 281 280 280 279 279 278 278 277 277 277 276 276 275 273 273 274 273 273 270 269
282 282 282 282 281 280 279 278 278 278 277 277 276 278 282 284 283 283 282 278 276 275 275 274 275 274 274 274 273 272 272 272 272 271 270 268 267 269 267 267 267 266 265
279 280 280 279 278 277 277 276 276 275 274 273 272 272 275 276 273 272 273 273 272 272 271 271 270 270 270 270 270 269 268 268 267 266 265 265 265 265 263 262 261 261 259
277 278 277 277 276 275 274 273 273 272 271 272 273 275 276 271 269 269 269 269 269 269 269 268 267 267 267 267 266 266 265 264 264 263 263 261 262 260 260 261 259 256 256
275 274 274 273 273 272 271 271 271 270 269 269 269 271 272 268 267 266 265 265 265 266 267 266 265 264 264 265 265 264 263 261 260 260 261 260 259 260 259 258 257 256 255
272 272 271 270 270 270 269 268 268 267 266 266 266 266 266 266 265 264 264 264 264 263 264 264 263 262 262 261 262 262 262 260 259 260 259 259 259 257 256 255 254 253 253
271 270 269 269 269 268 268 267 266 266 266 265 265 265 265 264 264 263 263 263 262 262 262 263 263 262 261 259 258 258 258 257 258 258 258 258 257 257 253 252 253 253 253
270 269 269 268 268 267 266 266 265 265 265 265 264 264 264 263 263 263 262 262 262 262 261 261 261 261 260 260 259 258 260 261 257 257 257 256 254 252 250 250 250 250 251
268 268 267 267 266 266 266 265 264 264 264 264 264 263 263 263 263 262 262 262 261 261 261 261 260 260 259 258 258 259 261 261 257 257 253 252 251 249 249 250 249 249 250

GFSGL_sfc_thetae_171.txt.gz
Theta_e
302 302 302 303 304 306 307 309 311 314 318 322 324 324 323 323 323 322 321 321 319 319 320 319 318 319 318 318 317 316 314 313 309 310 309 310 305 308 302 305 303 303 302
301 302 302 303 304 303 305 305 305 306 308 312 317 320 322 323 323 321 321 321 320 319 319 319 318 318 317 318 318 316 315 315 313 310 308 302 303 302 302 302 300 298 299
302 302 302 302 302 302 302 302 303 304 305 306 307 310 315 320 322 323 321 320 320 320 319 319 318 318 317 317 318 317 317 315 315 313 310 301 295 294 293 292 295 295 295
301 302 302 302 302 302 302 302 303 304 303 304 305 306 309 313 318 321 322 321 321 320 320 319 319 319 318 317 317 317 316 315 314 312 305 294 293 287 289 289 288 287 289
299 300 301 302 302 302 302 301 302 302 303 304 304 305 306 308 313 318 321 321 321 320 319 319 320 316 308 314 317 316 315 313 310 309 291 287 288 286 291 289 290 287 286
297 297 299 299 299 299 299 299 300 300 301 302 302 304 305 306 306 305 312 320 320 319 318 319 318 302 303 303 304 308 314 313 305 306 304 299 292 290 287 289 287 287 289
295 296 295 295 295 295 296 296 296 297 299 300 301 303 305 308 305 304 302 317 319 319 319 318 315 314 305 312 304 304 304 305 307 308 298 299 296 291 291 287 286 287 288
292 291 291 291 292 292 291 291 293 294 295 296 298 301 305 308 305 303 300 313 318 318 318 317 316 313 309 311 310 307 308 305 304 305 306 302 300 295 295 291 288 285 284
287 287 288 287 289 290 291 291 292 293 293 295 296 298 301 305 304 301 301 311 312 314 315 316 315 312 305 303 308 298 293 289 296 298 297 297 295 294 291 289 286 287 283
286 287 287 289 289 289 290 290 291 291 291 292 293 295 296 300 303 301 301 308 307 306 309 308 297 309 302 300 305 294 289 288 289 289 291 291 291 290 290 289 289 287 284
285 286 287 288 288 289 289 289 288 288 289 290 290 292 294 293 295 297 299 306 307 305 301 291 297 298 297 298 298 295 292 289 289 287 286 286 286 285 285 286 286 287 285
284 285 286 287 288 288 287 287 288 288 287 288 288 289 287 287 289 293 296 296 303 297 294 293 293 295 295 295 292 292 291 288 287 286 285 284 284 283 283 283 283 283 283
283 284 285 287 287 287 286 286 286 288 287 287 287 286 285 286 287 290 293 294 293 288 288 290 292 292 291 291 291 290 287 287 286 285 284 283 283 282 281 281 280 280 280
281 283 285 286 286 286 286 286 286 286 287 286 286 285 285 285 285 286 287 288 288 289 289 288 288 287 288 287 286 287 286 287 286 284 281 281 282 282 281 281 279 279 278
279 281 284 286 285 285 285 285 286 286 286 286 285 285 285 285 285 287 287 286 286 286 286 287 286 285 285 284 284 285 285 284 282 282 281 281 280 280 280 280 279 277 277
276 279 283 285 285 283 283 284 288 289 289 289 289 287 286 289 289 289 288 288 289 288 285 285 284 284 283 283 282 282 283 282 282 282 281 281 279 279 278 279 278 277 276
274 276 280 284 284 283 282 282 282 285 289 289 289 289 289 289 289 289 289 289 288 287 284 283 282 282 281 281 282 281 280 281 282 281 280 280 279 279 278 277 276 276 273
270 273 279 284 284 283 283 282 281 281 281 282 287 288 288 289 288 287 286 284 280 282 282 281 281 281 280 280 280 279 279 279 278 278 277 277 278 277 275 274 273 272 270
268 272 278 283 283 282 280 279 278 278 277 276 278 279 281 283 282 282 282 278 276 275 276 275 276 276 276 276 275 276 276 275 274 273 272 272 273 272 269 268 268 267 266
269 273 278 281 279 278 278 277 276 274 273 273 273 273 275 276 273 273 273 274 273 272 272 271 272 272 272 272 272 272 271 270 270 269 268 268 267 268 266 265 264 264 259
270 274 276 275 275 276 276 275 274 273 273 273 274 276 276 271 269 269 269 269 269 269 269 269 268 268 269 269 269 268 267 266 266 265 265 265 265 263 263 263 261 260 258
271 271 271 272 273 273 273 273 272 271 270 269 269 272 273 268 267 266 266 265 266 266 267 266 265 265 265 266 266 265 264 263 264 264 263 262 262 261 260 260 259 257 255
267 268 268 269 270 270 270 269 269 268 267 267 267 267 267 266 265 264 264 264 264 264 265 264 263 262 263 263 264 265 264 263 262 263 261 260 259 258 259 258 256 253 252
266 267 267 269 269 269 268 268 268 268 268 267 267 266 265 265 264 263 263 263 263 263 263 263 263 262 262 261 261 261 261 261 260 260 261 260 258 257 256 252 252 251 252
266 266 268 268 268 268 267 267 266 266 265 265 264 264 264 264 263 263 263 263 262 262 262 262 262 262 261 261 260 260 263 260 258 259 257 257 256 255 252 250 249 249 249
266 266 267 267 266 266 266 265 265 265 264 264 264 264 264 263 263 262 262 262 262 262 262 261 261 261 260 260 260 261 263 262 260 258 257 257 254 249 248 249 248 248 248

GFSGL_sfc_thetae_174.txt.gz
Theta_e
299 300 300 301 302 302 302 303 304 306 308 311 316 321 322 321 322 321 321 322 321 320 320 319 319 319 318 318 317 316 314 314 309 311 311 312 308 310 306 307 307 306 306
299 299 300 301 301 301 301 302 303 304 306 307 309 310 311 313 320 321 320 321 320 319 320 319 318 319 318 319 318 316 315 315 312 309 310 305 308 306 308 306 304 303 304
298 299 299 300 300 301 301 302 302 301 301 302 303 303 304 305 306 308 313 319 320 321 320 319 319 319 317 318 318 316 316 315 314 312 311 304 300 297 295 296 297 298 297
297 297 298 299 300 300 301 301 301 302 301 302 302 303 303 303 304 305 306 309 314 319 320 320 320 319 318 318 317 316 316 315 313 312 310 297 298 290 291 297 292 287 290
295 295 295 297 298 298 298 298 299 299 299 300 300 301 302 302 303 303 304 305 307 310 316 318 319 316 308 313 317 317 316 314 312 310 308 292 291 287 296 292 301 292 289
292 292 294 293 293 293 294 295 295 295 296 297 297 298 298 300 300 299 299 303 304 305 309 315 318 306 304 302 304 308 314 315 311 309 308 303 303 303 293 296 297 288 291
290 291 291 290 290 290 291 291 291 293 295 295 296 297 297 298 298 298 297 301 303 304 307 311 314 316 308 315 306 305 306 307 311 313 307 306 306 303 299 292 293 292 292
287 288 287 287 287 287 289 290 291 292 293 294 295 296 296 297 297 297 296 301 303 306 308 310 313 315 315 312 312 310 308 310 310 312 313 311 310 302 301 302 296 288 288
284 284 285 285 285 287 287 288 290 291 291 292 293 293 293 295 295 296 297 299 301 304 308 311 313 314 310 302 308 308 307 307 308 306 308 307 302 300 297 293 290 290 286
283 284 284 284 285 286 287 288 289 289 289 289 289 291 290 291 293 294 295 297 297 300 303 305 298 304 305 302 307 309 305 305 296 291 294 295 296 295 295 299 293 290 284
283 283 283 284 285 286 287 288 288 288 288 288 288 290 290 291 292 293 293 292 293 295 299 302 304 301 299 301 301 307 306 293 293 289 287 287 288 288 288 287 288 291 287
281 281 281 283 285 286 286 287 287 287 286 287 288 288 290 291 290 290 291 292 294 292 294 299 302 297 298 299 299 303 295 292 289 287 287 286 285 284 285 285 285 284 285
279 278 279 281 285 286 286 286 286 286 286 286 287 287 288 289 288 289 289 290 291 291 293 294 292 293 294 296 296 294 288 288 288 287 286 285 285 283 282 281 282 282 281
274 276 279 281 283 285 286 286 285 285 285 286 286 286 287 287 287 287 287 287 286 287 288 287 288 288 289 288 288 289 289 289 288 286 284 283 283 283 282 282 280 280 278
273 275 277 279 282 284 286 286 286 286 286 285 286 286 285 285 286 288 288 286 286 286 286 286 286 286 285 285 285 285 285 285 285 284 283 282 281 280 280 280 279 278 276
270 272 274 276 278 282 284 285 288 288 289 289 290 288 286 289 289 289 289 289 289 289 286 285 284 284 284 284 284 284 284 283 283 282 282 281 280 279 278 278 279 278 276
267 269 270 273 276 279 283 284 283 286 288 288 288 289 289 289 289 288 288 287 288 287 284 283 282 282 281 281 281 281 280 281 282 281 280 280 279 278 278 277 277 276 275
264 267 268 270 274 279 283 284 284 282 281 280 282 284 285 285 285 285 286 284 280 279 279 280 279 280 280 280 280 279 279 280 280 280 279 279 279 278 276 275 275 274 273
264 266 268 270 273 278 282 283 281 280 278 277 277 279 278 280 280 281 280 277 275 274 275 275 276 276 276 276 276 276 276 276 276 276 277 277 277 276 274 274 272 271 269
264 267 268 271 275 278 280 279 278 277 275 275 275 275 276 275 273 272 272 273 272 272 272 272 272 273 273 273 274 274 273 272 272 272 271 271 272 272 270 269 269 267 266
265 267 269 271 274 276 275 274 274 273 274 274 274 276 275 270 268 268 268 268 269 269 269 269 270 270 270 271 271 270 269 268 268 268 267 267 267 266 265 266 264 264 264
265 267 270 270 270 269 269 270 270 271 269 269 270 272 272 268 267 266 266 266 266 266 267 267 266 266 266 267 268 268 267 265 264 264 264 264 264 263 263 263 262 261 260
268 268 267 266 266 267 266 267 268 269 268 268 268 268 267 267 266 265 264 265 265 265 265 265 265 264 264 265 265 266 265 264 264 265 263 263 262 262 262 261 260 259 258
265 266 265 265 264 264 266 267 268 268 267 267 266 265 265 264 264 263 263 264 264 264 264 263 263 263 263 263 263 263 263 263 264 264 264 263 261 261 260 260 259 258 258
262 262 263 263 263 265 266 266 266 265 265 265 264 264 264 264 263 263 263 263 263 263 262 263 263 262 262 262 262 263 264 262 262 263 262 262 260 260 259 259 257 257 255
262 264 262 263 264 265 265 264 264 264 264 264 264 264 263 263 263 263 263 263 262 262 262 262 262 262 261 261 262 263 264 263 261 261 261 261 260 258 258 257 256 255 254